COSMOS 2251 DEB, 34588

Orbit data source: Space-Track

COSMOS 2251 DEB, 34588 is space debris in LEO originally from a launch on Wed, 16 Jun 1993 UTC launched from the Plesetsk Missile And Space Complex (PKMTR). The debris from Iridium 33, an American commercial communications satellite, has been tracked extensively since its accidental collision with the defunct Russian satellite Cosmos 2251 in 2009. This event, occurring at high speed in low Earth orbit (LEO), generated thousands of pieces of space debris, significantly increasing the risk of further collisions. The Iridium 33 debris cloud has impacted space traffic management and orbital debris mitigation strategies, making it a subject of ongoing study in space situational awareness.

Loading next visibility...
Identifier
34588, 1993-036WA
Orbit
LEO
Country
Flag of CISCIS
Related business
Manufacturer
Unknown
Mission
Spacecraft
Bus & Motor
Unknown
Mass
Unknown
Launch date (UTC)
1993-06-16 (33 years ago)
Launch vehicle
Unknown
Launch site
Plesetsk Missile And Space Complex (PKMTR)
Object type
Payload
Rocket body
Debris
Shape & HBR
Unknown shape, 0.2 m
Radar Cross Section
Medium (>0.1 m² and <1 m²)

Expand to show TLE details & history
Last TLE update: 11 hours ago

TLE from 11 hours ago
0 COSMOS 2251 DEB
1 34588U 93036WA  26168.06089814  .00000815  00000-0  25318-3 0  9994
2 34588  74.0433 282.8406 0018978 295.3586 242.5356 14.42540663906368
Epoch: 2026-06-17T01:27Z
TLE epoch observation values (Epoch: 2026-06-17T01:27:41.599Z)
Latitude
2.11186°
Longitude
174.99238°
Altitude
758.747 km
Speed
7.472 km/s
True Right ascension
06h 48m 57s
True Declination
2° 05' 57"
Sunlit
Object was in daylight at epoch
Visualization orbit readout
Latitude
Unknown
Longitude
Unknown
Altitude
Unknown
Speed
Unknown
Apparent Right ascension
Unknown
Apparent Declination
Unknown
Sunlit
N/A
Visualization observer readout
Local Sidereal Time
22:45:23
Azimuth
Unknown
Elevation
Unknown
Doppler factor
Unknown
Orbital elements
Apogee altitude
761.256 km
Perigee altitude
734.209 km
Semi-major axis
7,125.87 km
Eccentricity
0.0019
Inclination
74.0433°
RAAN
282.8406°
Arg. of periapsis
295.3586°
True anomaly
242.34285°
Mean anomaly
242.5356°
Eccentric anomaly
242.4392°
Mean motion
3.60816 °/min
Orbital period
99.77 mins
BSTAR
0.00025318
Loading maneuver chart data...
Computing Atmospheric mass density...

Documentation

Showing up to 5 results
|